VIR23X EGLL-KLAX

Flight info

Callsign VIR23X
Flight time N/A
Altitude 34000
Route UMLAT T418 WELIN T420 TNT UN57 POL UN601 RIBEL DCT ASLIB DCT BALIX/M085F340 DCT 64N020W/M085F360 67N030W 69N040W 69N050W 69N060W/M085F380 DCT BOPUT/N0491F380 DCT 68N070W 65N085W 61N095W DCT YYL DCT DURUR/N0481F400 DCT KATEN DCT BIL DCT MLF DCT WINEN/N0484F410 Q73 EEVUN/N0486F400 Q73 HAKMN ANJLL4
Aircraft A35K/H-SDE2E3GHIJ3J4J5LM1ORWXY/LB1D1

Departure

Time N/A
Airport London Heathrow Airport (EGLL)

Arrival

Time 2026-05-04 01:07
Airport Los Angeles International Airport (KLAX)
Time Latitude Longitude Altitude Speed Heading
2026-05-03 20:15 64.60198 -86.22289 39990 ft 493 kts 230°
2026-05-03 20:15 64.55978 -86.34869 39971 ft 493 kts 230°
2026-05-03 20:16 64.51744 -86.47417 39984 ft 493 kts 230°
2026-05-03 20:16 64.47500 -86.59928 39986 ft 493 kts 229°
2026-05-03 20:17 64.43244 -86.72404 39966 ft 493 kts 230°
2026-05-03 20:17 64.38982 -86.84826 39964 ft 493 kts 230°
2026-05-03 20:18 64.34706 -86.97223 39977 ft 494 kts 230°
2026-05-03 20:18 64.30408 -87.09612 39950 ft 495 kts 229°
2026-05-03 20:19 64.26095 -87.21975 39955 ft 495 kts 229°
2026-05-03 20:19 64.21768 -87.34311 39958 ft 496 kts 229°
2026-05-03 20:20 64.17453 -87.46546 39939 ft 496 kts 229°
2026-05-03 20:20 64.13080 -87.58878 39945 ft 496 kts 229°
2026-05-03 20:21 64.08748 -87.71025 39932 ft 496 kts 229°
2026-05-03 20:21 64.04371 -87.83231 39935 ft 496 kts 229°
2026-05-03 20:22 63.99983 -87.95403 39932 ft 497 kts 229°
2026-05-03 20:22 63.96295 -88.05581 39916 ft 498 kts 229°
2026-05-03 20:23 63.91896 -88.17661 39919 ft 498 kts 228°
2026-05-03 20:23 63.87468 -88.29755 39921 ft 498 kts 228°
2026-05-03 20:24 63.83025 -88.41825 39905 ft 498 kts 228°
2026-05-03 20:24 63.78571 -88.53859 39910 ft 498 kts 228°
2026-05-03 20:25 63.74104 -88.65862 39906 ft 498 kts 227°
2026-05-03 20:25 63.69632 -88.77816 39901 ft 499 kts 228°
2026-05-03 20:26 63.65135 -88.89769 39900 ft 500 kts 227°
2026-05-03 20:26 63.60655 -89.01615 39887 ft 500 kts 227°
2026-05-03 20:27 63.56137 -89.13500 39891 ft 500 kts 227°
2026-05-03 20:27 63.51614 -89.25333 39892 ft 500 kts 227°
2026-05-03 20:28 63.47073 -89.37150 39878 ft 500 kts 227°
2026-05-03 20:28 63.42526 -89.48919 39893 ft 500 kts 227°
2026-05-03 20:29 63.37967 -89.60657 39883 ft 501 kts 227°
2026-05-03 20:29 63.33391 -89.72377 39876 ft 501 kts 227°
2026-05-03 20:30 63.28832 -89.83992 39867 ft 501 kts 227°
2026-05-03 20:30 63.24229 -89.95659 39860 ft 501 kts 227°
2026-05-03 20:31 63.19619 -90.07282 39872 ft 501 kts 226°
2026-05-03 20:31 63.15000 -90.18866 39867 ft 501 kts 226°
2026-05-03 20:32 63.10369 -90.30420 39874 ft 502 kts 226°
2026-05-03 20:32 63.05749 -90.41888 39869 ft 503 kts 226°
2026-05-03 20:33 63.01089 -90.53392 39866 ft 503 kts 226°
2026-05-03 20:33 62.96419 -90.64866 39868 ft 503 kts 226°
2026-05-03 20:34 62.91740 -90.76298 39874 ft 503 kts 226°
2026-05-03 20:34 62.87049 -90.87703 39848 ft 503 kts 226°
2026-05-03 20:35 62.82350 -90.99067 39870 ft 503 kts 226°
2026-05-03 20:35 62.77642 -91.10395 39865 ft 504 kts 226°
2026-05-03 20:36 62.72916 -91.21708 39853 ft 504 kts 226°
2026-05-03 20:36 62.68177 -91.32996 39859 ft 504 kts 226°
2026-05-03 20:37 62.63461 -91.44170 39848 ft 505 kts 225°
2026-05-03 20:37 62.58705 -91.55384 39844 ft 505 kts 225°
2026-05-03 20:38 62.53942 -91.66555 39846 ft 505 kts 225°
2026-05-03 20:38 62.49163 -91.77708 39869 ft 505 kts 225°
2026-05-03 20:39 62.44372 -91.88831 39856 ft 505 kts 225°
2026-05-03 20:39 62.39576 -91.99912 39861 ft 505 kts 225°
2026-05-03 20:40 62.34765 -92.10969 39850 ft 505 kts 225°
2026-05-03 20:40 62.29948 -92.21986 39856 ft 505 kts 225°
2026-05-03 20:41 62.25120 -92.32975 39852 ft 505 kts 225°
2026-05-03 20:41 62.20316 -92.43853 39860 ft 505 kts 225°
2026-05-03 20:42 62.15464 -92.54786 39853 ft 506 kts 225°
2026-05-03 20:42 62.10608 -92.65674 39855 ft 506 kts 225°
2026-05-03 20:43 62.05739 -92.76536 39851 ft 505 kts 224°
2026-05-03 20:43 62.00870 -92.87345 39847 ft 506 kts 224°
2026-05-03 20:44 61.95997 -92.98109 39854 ft 505 kts 224°
2026-05-03 20:44 61.91135 -93.08798 39853 ft 505 kts 224°
2026-05-03 20:45 61.86246 -93.19491 39851 ft 505 kts 224°
2026-05-03 20:45 61.81351 -93.30146 39851 ft 505 kts 224°
2026-05-03 20:46 61.76449 -93.40765 39851 ft 505 kts 224°
2026-05-03 20:46 61.71539 -93.51351 39853 ft 505 kts 224°
2026-05-03 20:47 61.66615 -93.61913 39854 ft 505 kts 224°
2026-05-03 20:47 61.61683 -93.72443 39850 ft 505 kts 224°
2026-05-03 20:48 61.56773 -93.82876 39851 ft 505 kts 224°
2026-05-03 20:48 61.51828 -93.93331 39851 ft 505 kts 224°
2026-05-03 20:49 61.46876 -94.03753 39848 ft 505 kts 224°
2026-05-03 20:49 61.41917 -94.14140 39848 ft 505 kts 223°
2026-05-03 20:50 61.36949 -94.24493 39844 ft 505 kts 224°
2026-05-03 20:50 61.31957 -94.34850 39846 ft 506 kts 224°
2026-05-03 20:51 61.26962 -94.45165 39844 ft 506 kts 224°
2026-05-03 20:51 61.21950 -94.55464 39846 ft 506 kts 224°
2026-05-03 20:52 61.16934 -94.65722 39838 ft 506 kts 224°
2026-05-03 20:52 61.11939 -94.75890 39851 ft 506 kts 224°
2026-05-03 20:53 61.06907 -94.86085 39848 ft 506 kts 224°
2026-05-03 20:53 61.01868 -94.96248 39851 ft 507 kts 224°
2026-05-03 20:54 60.96736 -95.06201 39856 ft 506 kts 220°
2026-05-03 20:54 60.88510 -95.19898 39856 ft 506 kts 218°
2026-05-03 20:55 60.83066 -95.28921 39859 ft 507 kts 219°
2026-05-03 20:55 60.77616 -95.38083 39859 ft 506 kts 219°
2026-05-03 20:56 60.72176 -95.47244 39862 ft 507 kts 219°
2026-05-03 20:56 60.66734 -95.56372 39865 ft 507 kts 219°
2026-05-03 20:57 60.61267 -95.65493 39860 ft 507 kts 219°
2026-05-03 20:57 60.55797 -95.74574 39870 ft 507 kts 219°
2026-05-03 20:58 60.50315 -95.83632 39865 ft 508 kts 219°
2026-05-03 20:58 60.44828 -95.92659 39864 ft 508 kts 219°
2026-05-03 20:59 60.39365 -96.01606 39870 ft 508 kts 219°
2026-05-03 20:59 60.33870 -96.10566 39865 ft 508 kts 219°
2026-05-03 21:00 60.30186 -96.16550 39869 ft 508 kts 219°
2026-05-03 21:00 60.22849 -96.28415 39868 ft 508 kts 219°
2026-05-03 21:01 60.17332 -96.37291 39865 ft 508 kts 219°
2026-05-03 21:01 60.11814 -96.46130 39856 ft 507 kts 219°
2026-05-03 21:02 60.06287 -96.54942 39857 ft 508 kts 218°
2026-05-03 21:02 60.00758 -96.63721 39856 ft 507 kts 218°
2026-05-03 21:03 59.95220 -96.72475 39856 ft 508 kts 219°
2026-05-03 21:03 59.89676 -96.81200 39857 ft 508 kts 218°
2026-05-03 21:04 59.84126 -96.89897 39854 ft 508 kts 218°
2026-05-03 21:04 59.78550 -96.98595 39853 ft 508 kts 218°
2026-05-03 21:05 59.73018 -97.07188 39843 ft 508 kts 218°
2026-05-03 21:05 59.67444 -97.15809 39850 ft 508 kts 218°
2026-05-03 21:06 59.61860 -97.24406 39836 ft 508 kts 219°
2026-05-03 21:06 59.56271 -97.32976 39838 ft 509 kts 218°
2026-05-03 21:07 59.50674 -97.41521 39838 ft 509 kts 218°
2026-05-03 21:07 59.45104 -97.49987 39831 ft 509 kts 218°
2026-05-03 21:08 59.39495 -97.58477 39832 ft 509 kts 218°
2026-05-03 21:08 59.33878 -97.66942 39824 ft 509 kts 218°
2026-05-03 21:09 59.28247 -97.75392 39815 ft 509 kts 218°
2026-05-03 21:09 59.22613 -97.83811 39810 ft 510 kts 218°
2026-05-03 21:10 59.17924 -97.90789 39809 ft 510 kts 218°
2026-05-03 21:10 59.12283 -97.99153 39796 ft 510 kts 218°
2026-05-03 21:11 59.06623 -98.07509 39800 ft 510 kts 218°
2026-05-03 21:11 59.00971 -98.15817 39798 ft 509 kts 218°
2026-05-03 21:12 58.95327 -98.24080 39785 ft 509 kts 218°
2026-05-03 21:12 58.89656 -98.32346 39785 ft 509 kts 218°
2026-05-03 21:13 58.83991 -98.40570 39774 ft 509 kts 218°
2026-05-03 21:13 58.78320 -98.48768 39720 ft 509 kts 218°
2026-05-03 21:14 58.72685 -98.56880 39720 ft 509 kts 218°
2026-05-03 21:14 58.67010 -98.65015 39720 ft 508 kts 218°
2026-05-03 21:15 58.61335 -98.73116 39729 ft 508 kts 218°
2026-05-03 21:15 58.55655 -98.81191 39739 ft 508 kts 218°
2026-05-03 21:16 58.49960 -98.89255 39741 ft 508 kts 218°
2026-05-03 21:16 58.44261 -98.97292 39748 ft 508 kts 218°
2026-05-03 21:17 58.39531 -99.03935 39749 ft 508 kts 218°
2026-05-03 21:17 58.32905 -99.13206 39739 ft 508 kts 218°
2026-05-03 21:18 58.27200 -99.21151 39735 ft 508 kts 218°
2026-05-03 21:18 58.21489 -99.29073 39720 ft 508 kts 218°
2026-05-03 21:19 58.15779 -99.36961 39725 ft 508 kts 218°
2026-05-03 21:19 58.10057 -99.44833 39710 ft 508 kts 218°
2026-05-03 21:20 58.04342 -99.52665 39714 ft 507 kts 217°
2026-05-03 21:20 57.98620 -99.60475 39697 ft 507 kts 217°
2026-05-03 21:21 57.92894 -99.68258 39699 ft 507 kts 217°
2026-05-03 21:21 57.87168 -99.76010 39691 ft 507 kts 217°
2026-05-03 21:22 57.81473 -99.83689 39690 ft 506 kts 217°
2026-05-03 21:22 57.75743 -99.91385 39682 ft 507 kts 217°
2026-05-03 21:23 57.69996 -99.99074 39684 ft 507 kts 217°
2026-05-03 21:23 57.64247 -100.06735 39683 ft 507 kts 217°
2026-05-03 21:24 57.58495 -100.14369 39679 ft 507 kts 217°
2026-05-03 21:24 57.52741 -100.21975 39678 ft 507 kts 217°
2026-05-03 21:25 57.46975 -100.29567 39678 ft 507 kts 217°
2026-05-03 21:25 57.41210 -100.37127 39671 ft 507 kts 217°
2026-05-03 21:26 57.35477 -100.44617 39662 ft 507 kts 217°
2026-05-03 21:26 57.29701 -100.52133 39657 ft 507 kts 217°
2026-05-03 21:27 57.23920 -100.59626 39666 ft 507 kts 217°
2026-05-03 21:27 57.18144 -100.67085 39668 ft 507 kts 217°
2026-05-03 21:28 57.12360 -100.74524 39651 ft 506 kts 217°
2026-05-03 21:28 57.06603 -100.81899 39653 ft 507 kts 217°
2026-05-03 21:29 57.00809 -100.89294 39661 ft 507 kts 217°
2026-05-03 21:29 56.95007 -100.96671 39593 ft 507 kts 217°
2026-05-03 21:30 56.89209 -101.04011 39586 ft 507 kts 217°
2026-05-03 21:30 56.82963 -101.10034 39592 ft 510 kts 205°
2026-05-03 21:31 56.76366 -101.14919 39595 ft 511 kts 203°
2026-05-03 21:31 56.69740 -101.19599 39615 ft 511 kts 203°
2026-05-03 21:32 56.63148 -101.24253 39627 ft 511 kts 203°
2026-05-03 21:32 56.56516 -101.28957 39639 ft 511 kts 203°
2026-05-03 21:33 56.49891 -101.33654 39632 ft 511 kts 203°
2026-05-03 21:33 56.43258 -101.38341 39636 ft 511 kts 203°
2026-05-03 21:34 56.36626 -101.43008 39630 ft 511 kts 203°
2026-05-03 21:34 56.29998 -101.47653 39621 ft 511 kts 203°
2026-05-03 21:35 56.23360 -101.52288 39611 ft 511 kts 204°
2026-05-03 21:35 56.16719 -101.56908 39612 ft 512 kts 203°
2026-05-03 21:36 56.10100 -101.61495 39615 ft 513 kts 203°
2026-05-03 21:36 56.03441 -101.66093 39605 ft 513 kts 203°
2026-05-03 21:37 55.96777 -101.70678 39605 ft 512 kts 203°
2026-05-03 21:37 55.90124 -101.75237 39593 ft 512 kts 203°
2026-05-03 21:38 55.83466 -101.79784 39581 ft 512 kts 203°
2026-05-03 21:38 55.76803 -101.84318 39582 ft 512 kts 203°
2026-05-03 21:39 55.70139 -101.88835 39566 ft 513 kts 204°
2026-05-03 21:39 55.63469 -101.93340 39570 ft 513 kts 204°
2026-05-03 21:40 55.56798 -101.97830 39571 ft 513 kts 203°
2026-05-03 21:40 55.50120 -102.02307 39555 ft 513 kts 203°
2026-05-03 21:41 55.43486 -102.06739 39559 ft 513 kts 203°
2026-05-03 21:41 55.36804 -102.11187 39544 ft 513 kts 203°
2026-05-03 21:42 55.30123 -102.15619 39543 ft 513 kts 203°
2026-05-03 21:42 55.23435 -102.20038 39512 ft 513 kts 203°
2026-05-03 21:43 55.16734 -102.24451 39515 ft 514 kts 203°
2026-05-03 21:43 55.10022 -102.28855 39523 ft 514 kts 204°
2026-05-03 21:44 55.03320 -102.33236 39512 ft 514 kts 204°
2026-05-03 21:44 54.96610 -102.37607 39510 ft 514 kts 203°
2026-05-03 21:45 54.89950 -102.41930 39501 ft 514 kts 203°
2026-05-03 21:45 54.83231 -102.46276 39510 ft 514 kts 204°
2026-05-03 21:46 54.76531 -102.50594 39500 ft 513 kts 204°
2026-05-03 21:46 54.69833 -102.54897 39486 ft 514 kts 204°
2026-05-03 21:47 54.63122 -102.59192 39506 ft 514 kts 204°
2026-05-03 21:47 54.56398 -102.63480 39497 ft 514 kts 204°
2026-05-03 21:48 54.49685 -102.67746 39498 ft 514 kts 204°
2026-05-03 21:48 54.43012 -102.71971 39503 ft 514 kts 204°
2026-05-03 21:49 54.36286 -102.76216 39498 ft 514 kts 204°
2026-05-03 21:49 54.29569 -102.80440 39495 ft 514 kts 204°
2026-05-03 21:50 54.22854 -102.84648 39491 ft 514 kts 204°
2026-05-03 21:50 54.16117 -102.88857 39501 ft 515 kts 204°
2026-05-03 21:51 54.09376 -102.93052 39498 ft 516 kts 204°
2026-05-03 21:51 54.02632 -102.97234 39506 ft 516 kts 204°
2026-05-03 21:52 53.95922 -103.01381 39509 ft 515 kts 204°
2026-05-03 21:52 53.89192 -103.05526 39508 ft 515 kts 204°
2026-05-03 21:53 53.82440 -103.09671 39519 ft 515 kts 204°
2026-05-03 21:53 53.75695 -103.13797 39514 ft 515 kts 204°
2026-05-03 21:54 53.68950 -103.17909 39519 ft 515 kts 204°
2026-05-03 21:54 53.62201 -103.22008 39526 ft 515 kts 204°
2026-05-03 21:55 53.55453 -103.26094 39530 ft 515 kts 204°
2026-05-03 21:55 53.48709 -103.30163 39523 ft 515 kts 204°
2026-05-03 21:56 53.41992 -103.34203 39545 ft 515 kts 204°
2026-05-03 21:56 53.35232 -103.38255 39539 ft 515 kts 204°
2026-05-03 21:57 53.28468 -103.42295 39529 ft 516 kts 204°
2026-05-03 21:57 53.22844 -103.45644 39539 ft 516 kts 204°
2026-05-03 21:58 53.16089 -103.49654 39556 ft 514 kts 204°
2026-05-03 21:58 53.09350 -103.53642 39557 ft 514 kts 204°
2026-05-03 21:59 53.02615 -103.57615 39570 ft 514 kts 204°
2026-05-03 21:59 52.95870 -103.61580 39569 ft 514 kts 204°
2026-05-03 22:00 52.89130 -103.65527 39580 ft 513 kts 204°
2026-05-03 22:00 52.82441 -103.69433 39587 ft 512 kts 204°
2026-05-03 22:01 52.75710 -103.73350 39581 ft 512 kts 204°
2026-05-03 22:01 52.68992 -103.77247 39597 ft 512 kts 204°
2026-05-03 22:02 52.62263 -103.81138 39603 ft 512 kts 204°
2026-05-03 22:02 52.55539 -103.85014 39603 ft 512 kts 204°
2026-05-03 22:03 52.48810 -103.88879 39617 ft 512 kts 204°
2026-05-03 22:03 52.42084 -103.92730 39612 ft 512 kts 205°
2026-05-03 22:04 52.35377 -103.96555 39620 ft 508 kts 205°
2026-05-03 22:04 52.28704 -104.00350 39636 ft 507 kts 205°
2026-05-03 22:05 52.22041 -104.04131 39639 ft 507 kts 205°
2026-05-03 22:05 52.15414 -104.07879 39634 ft 507 kts 205°
2026-05-03 22:06 52.08754 -104.11631 39666 ft 506 kts 205°
2026-05-03 22:06 52.02096 -104.15371 39664 ft 506 kts 205°
2026-05-03 22:07 51.95442 -104.19098 39664 ft 506 kts 205°
2026-05-03 22:07 51.88774 -104.22820 39649 ft 506 kts 205°
2026-05-03 22:08 51.82111 -104.26529 39667 ft 507 kts 205°
2026-05-03 22:08 51.75410 -104.30246 39661 ft 508 kts 205°
2026-05-03 22:09 51.68730 -104.33940 39659 ft 508 kts 205°
2026-05-03 22:10 51.58746 -104.39438 39660 ft 508 kts 205°
2026-05-03 22:10 51.52048 -104.43114 39661 ft 508 kts 205°
2026-05-03 22:11 51.45345 -104.46781 39658 ft 508 kts 205°
2026-05-03 22:11 51.38648 -104.50432 39632 ft 508 kts 205°
2026-05-03 22:12 51.32000 -104.54043 39660 ft 506 kts 206°
2026-05-03 22:12 51.25349 -104.57646 39664 ft 505 kts 206°
2026-05-03 22:13 51.18700 -104.61241 39659 ft 504 kts 206°
2026-05-03 22:13 51.12043 -104.64828 39642 ft 505 kts 206°
2026-05-03 22:14 51.05416 -104.68383 39670 ft 500 kts 206°
2026-05-03 22:14 50.98837 -104.71903 39667 ft 498 kts 206°
2026-05-03 22:15 50.92257 -104.75418 39643 ft 498 kts 206°
2026-05-03 22:15 50.85695 -104.78910 39649 ft 495 kts 206°
2026-05-03 22:16 50.79229 -104.82338 39663 ft 491 kts 206°
2026-05-03 22:16 50.72754 -104.85765 39669 ft 491 kts 206°
2026-05-03 22:17 50.66326 -104.89313 39673 ft 486 kts 210°
2026-05-03 22:17 50.60104 -104.93477 39628 ft 485 kts 211°
2026-05-03 22:18 50.53934 -104.97734 39645 ft 483 kts 211°
2026-05-03 22:18 50.47777 -105.01984 39670 ft 483 kts 211°
2026-05-03 22:19 50.41619 -105.06210 39672 ft 482 kts 211°
2026-05-03 22:19 50.35496 -105.10393 39674 ft 482 kts 211°
2026-05-03 22:20 50.29345 -105.14581 39672 ft 482 kts 210°
2026-05-03 22:20 50.23183 -105.18764 39668 ft 482 kts 210°
2026-05-03 22:21 50.17015 -105.22941 39675 ft 482 kts 210°
2026-05-03 22:21 50.10891 -105.27074 39651 ft 482 kts 210°
2026-05-03 22:22 50.04719 -105.31229 39681 ft 483 kts 210°
2026-05-03 22:22 49.98550 -105.35371 39691 ft 483 kts 210°
2026-05-03 22:23 49.92376 -105.39503 39694 ft 483 kts 210°
2026-05-03 22:23 49.86192 -105.43631 39697 ft 483 kts 210°
2026-05-03 22:24 49.80053 -105.47718 39696 ft 484 kts 210°
2026-05-03 22:24 49.73865 -105.51826 39697 ft 484 kts 210°
2026-05-03 22:25 49.67669 -105.55928 39704 ft 485 kts 210°
2026-05-03 22:25 49.61455 -105.60029 39703 ft 485 kts 210°
2026-05-03 22:26 49.55236 -105.64124 39701 ft 486 kts 209°
2026-05-03 22:26 49.49007 -105.68214 39707 ft 486 kts 209°
2026-05-03 22:27 49.42775 -105.72293 39720 ft 487 kts 209°
2026-05-03 22:27 49.36584 -105.76333 39719 ft 487 kts 209°
2026-05-03 22:28 49.30344 -105.80397 39718 ft 487 kts 209°
2026-05-03 22:28 49.24100 -105.84451 39736 ft 487 kts 208°
2026-05-03 22:29 49.17855 -105.88494 39743 ft 487 kts 208°
2026-05-03 22:29 49.11715 -105.92459 39752 ft 487 kts 208°
2026-05-03 22:30 49.05511 -105.96455 39751 ft 487 kts 208°
2026-05-03 22:30 48.99344 -106.00686 39754 ft 483 kts 215°
2026-05-03 22:31 48.93487 -106.05681 39753 ft 482 kts 216°
2026-05-03 22:31 48.87694 -106.10783 39752 ft 482 kts 216°
2026-05-03 22:32 48.81895 -106.15897 39744 ft 482 kts 216°
2026-05-03 22:32 48.76083 -106.20990 39754 ft 483 kts 216°
2026-05-03 22:33 48.70260 -106.26067 39759 ft 483 kts 216°
2026-05-03 22:33 48.64425 -106.31138 39758 ft 483 kts 215°
2026-05-03 22:34 48.58594 -106.36192 39753 ft 483 kts 215°
2026-05-03 22:34 48.52759 -106.41238 39756 ft 483 kts 215°
2026-05-03 22:35 48.46951 -106.46247 39755 ft 484 kts 215°
2026-05-03 22:35 48.41102 -106.51277 39752 ft 484 kts 215°
2026-05-03 22:36 48.35259 -106.56289 39729 ft 483 kts 215°
2026-05-03 22:36 48.29409 -106.61295 39749 ft 484 kts 214°
2026-05-03 22:37 48.23557 -106.66289 39748 ft 485 kts 214°
2026-05-03 22:37 48.17691 -106.71280 39752 ft 485 kts 214°
2026-05-03 22:38 48.11821 -106.76261 39751 ft 485 kts 214°
2026-05-03 22:38 48.05949 -106.81231 39761 ft 485 kts 214°
2026-05-03 22:39 48.00072 -106.86194 39769 ft 486 kts 214°
2026-05-03 22:39 47.94174 -106.91160 39789 ft 487 kts 214°
2026-05-03 22:40 47.88316 -106.96079 39788 ft 487 kts 214°
2026-05-03 22:40 47.82373 -107.01056 39788 ft 487 kts 214°
2026-05-03 22:41 47.76517 -107.05947 39794 ft 485 kts 214°
2026-05-03 22:41 47.70643 -107.10840 39799 ft 483 kts 214°
2026-05-03 22:42 47.64777 -107.15716 39800 ft 483 kts 214°
2026-05-03 22:42 47.58909 -107.20582 39808 ft 483 kts 214°
2026-05-03 22:43 47.53038 -107.25435 39807 ft 483 kts 214°
2026-05-03 22:43 47.47157 -107.30284 39810 ft 483 kts 214°
2026-05-03 22:44 47.41278 -107.35120 39811 ft 484 kts 213°
2026-05-03 22:44 47.35394 -107.39946 39813 ft 483 kts 213°
2026-05-03 22:45 47.29511 -107.44760 39817 ft 483 kts 213°
2026-05-03 22:45 47.23622 -107.49567 39813 ft 484 kts 213°
2026-05-03 22:46 47.17757 -107.54342 39818 ft 484 kts 213°
2026-05-03 22:46 47.11857 -107.59132 39810 ft 484 kts 213°
2026-05-03 22:47 47.05958 -107.63911 39814 ft 485 kts 213°
2026-05-03 22:47 47.01035 -107.67889 39828 ft 486 kts 212°
2026-05-03 22:48 46.95095 -107.72678 39826 ft 487 kts 212°
2026-05-03 22:48 46.89154 -107.77454 39829 ft 487 kts 212°
2026-05-03 22:49 46.83203 -107.82227 39824 ft 487 kts 212°
2026-05-03 22:49 46.77252 -107.86987 39824 ft 490 kts 212°
2026-05-03 22:50 46.71263 -107.91767 39850 ft 491 kts 212°
2026-05-03 22:50 46.65267 -107.96538 39828 ft 491 kts 212°
2026-05-03 22:51 46.59263 -108.01304 39836 ft 491 kts 212°
2026-05-03 22:51 46.53252 -108.06065 39833 ft 493 kts 211°
2026-05-03 22:52 46.47249 -108.10807 39845 ft 495 kts 211°
2026-05-03 22:52 46.41189 -108.15581 39849 ft 495 kts 211°
2026-05-03 22:53 46.35122 -108.20348 39840 ft 495 kts 211°
2026-05-03 22:53 46.29054 -108.25105 39838 ft 496 kts 211°
2026-05-03 22:54 46.22992 -108.29844 39844 ft 496 kts 211°
2026-05-03 22:54 46.16931 -108.34570 39841 ft 495 kts 211°
2026-05-03 22:55 46.10869 -108.39287 39854 ft 495 kts 211°
2026-05-03 22:55 46.04845 -108.43962 39864 ft 494 kts 211°
2026-05-03 22:56 45.98795 -108.48645 39875 ft 494 kts 211°
2026-05-03 22:56 45.92751 -108.53311 39889 ft 493 kts 210°
2026-05-03 22:57 45.86705 -108.57967 39896 ft 492 kts 210°
2026-05-03 22:57 45.80667 -108.62607 39896 ft 490 kts 210°
2026-05-03 22:58 45.74560 -108.66936 39896 ft 490 kts 206°
2026-05-03 22:58 45.68354 -108.70962 39844 ft 489 kts 206°
2026-05-03 22:59 45.62163 -108.75002 39849 ft 488 kts 206°
2026-05-03 22:59 45.56056 -108.79049 39857 ft 485 kts 207°
2026-05-03 23:00 45.49939 -108.83121 39851 ft 484 kts 207°
2026-05-03 23:00 45.43833 -108.87179 39846 ft 484 kts 207°
2026-05-03 23:01 45.37717 -108.91230 39856 ft 484 kts 207°
2026-05-03 23:01 45.31608 -108.95264 39854 ft 483 kts 207°
2026-05-03 23:02 45.25504 -108.99285 39858 ft 483 kts 207°
2026-05-03 23:02 45.19412 -109.03290 39866 ft 483 kts 207°
2026-05-03 23:03 45.13314 -109.07289 39873 ft 483 kts 207°
2026-05-03 23:03 45.07254 -109.11253 39889 ft 483 kts 207°
2026-05-03 23:04 45.01162 -109.15228 39885 ft 483 kts 207°
2026-05-03 23:04 44.95054 -109.19206 39926 ft 483 kts 207°
2026-05-03 23:05 44.88954 -109.23168 39918 ft 482 kts 207°
2026-05-03 23:05 44.82856 -109.27119 39911 ft 482 kts 207°
2026-05-03 23:06 44.76756 -109.31063 39929 ft 482 kts 207°
2026-05-03 23:06 44.70653 -109.34999 39937 ft 482 kts 207°
2026-05-03 23:07 44.64555 -109.38923 39951 ft 482 kts 207°
2026-05-03 23:07 44.58461 -109.42837 39949 ft 481 kts 207°
2026-05-03 23:08 44.52371 -109.46738 39965 ft 481 kts 207°
2026-05-03 23:08 44.46281 -109.50631 39953 ft 481 kts 207°
2026-05-03 23:09 44.40204 -109.54505 39982 ft 481 kts 207°
2026-05-03 23:09 44.35248 -109.57659 39981 ft 480 kts 207°
2026-05-03 23:10 44.29161 -109.61522 39998 ft 480 kts 207°
2026-05-03 23:10 44.23065 -109.65383 39997 ft 480 kts 207°
2026-05-03 23:11 44.16983 -109.69228 40010 ft 480 kts 207°
2026-05-03 23:11 44.10892 -109.73070 40013 ft 480 kts 207°
2026-05-03 23:12 44.04845 -109.76875 40028 ft 480 kts 207°
2026-05-03 23:12 43.98763 -109.80693 40017 ft 480 kts 207°
2026-05-03 23:13 43.92670 -109.84508 40012 ft 479 kts 207°
2026-05-03 23:13 43.86591 -109.88307 40011 ft 479 kts 207°
2026-05-03 23:14 43.80512 -109.92100 39999 ft 479 kts 207°
2026-05-03 23:14 43.74429 -109.95884 40001 ft 478 kts 207°
2026-05-03 23:15 43.68401 -109.99625 39998 ft 478 kts 207°
2026-05-03 23:15 43.62331 -110.03385 39994 ft 478 kts 207°
2026-05-03 23:16 43.56264 -110.07135 40001 ft 477 kts 207°
2026-05-03 23:16 43.50204 -110.10872 39997 ft 476 kts 207°
2026-05-03 23:17 43.44162 -110.14590 39983 ft 476 kts 207°
2026-05-03 23:17 43.38107 -110.18308 39974 ft 476 kts 207°
2026-05-03 23:18 43.32063 -110.22010 39968 ft 475 kts 207°
2026-05-03 23:18 43.26037 -110.25693 39970 ft 474 kts 207°
2026-05-03 23:19 43.20016 -110.29365 39962 ft 473 kts 207°
2026-05-03 23:19 43.13994 -110.33031 39952 ft 473 kts 207°
2026-05-03 23:20 43.07979 -110.36684 39965 ft 472 kts 207°
2026-05-03 23:20 43.01967 -110.40328 39963 ft 472 kts 207°
2026-05-03 23:21 42.95967 -110.43956 39960 ft 472 kts 207°
2026-05-03 23:21 42.89998 -110.47557 39967 ft 472 kts 207°
2026-05-03 23:22 42.80992 -110.52977 39968 ft 472 kts 207°
2026-05-03 23:22 42.74983 -110.56584 39967 ft 472 kts 206°
2026-05-03 23:23 42.68981 -110.60179 39963 ft 471 kts 207°
2026-05-03 23:23 42.62981 -110.63765 39991 ft 471 kts 207°
2026-05-03 23:24 42.56987 -110.67340 39994 ft 471 kts 207°
2026-05-03 23:24 42.50988 -110.70910 39974 ft 471 kts 207°
2026-05-03 23:25 42.44989 -110.74472 39971 ft 470 kts 207°
2026-05-03 23:25 42.38996 -110.78024 39963 ft 470 kts 207°
2026-05-03 23:26 42.33007 -110.81567 39947 ft 470 kts 207°
2026-05-03 23:26 42.27009 -110.85106 39935 ft 470 kts 207°
2026-05-03 23:27 42.21051 -110.88614 39938 ft 470 kts 207°
2026-05-03 23:27 42.15022 -110.92158 39919 ft 469 kts 207°
2026-05-03 23:28 42.09074 -110.95647 39907 ft 469 kts 206°
2026-05-03 23:28 42.03377 -110.98981 39917 ft 469 kts 206°
2026-05-03 23:29 41.97399 -111.02473 39911 ft 469 kts 206°
2026-05-03 23:29 41.91407 -111.05966 39908 ft 469 kts 206°
2026-05-03 23:30 41.85418 -111.09450 39907 ft 468 kts 206°
2026-05-03 23:30 41.79444 -111.12919 39908 ft 467 kts 206°
2026-05-03 23:31 41.73481 -111.16373 39913 ft 467 kts 206°
2026-05-03 23:31 41.67556 -111.19800 39914 ft 466 kts 206°
2026-05-03 23:32 41.61584 -111.23246 39907 ft 466 kts 206°
2026-05-03 23:32 41.55626 -111.26678 39914 ft 466 kts 206°
2026-05-03 23:33 41.49677 -111.30096 39912 ft 466 kts 206°
2026-05-03 23:33 41.43723 -111.33511 39961 ft 466 kts 206°
2026-05-03 23:34 41.38772 -111.36346 39956 ft 466 kts 206°
2026-05-03 23:34 41.32822 -111.39746 39958 ft 465 kts 206°
2026-05-03 23:35 41.26859 -111.43147 39941 ft 465 kts 206°
2026-05-03 23:35 41.20903 -111.46538 39915 ft 465 kts 206°
2026-05-03 23:36 41.14948 -111.49920 39891 ft 465 kts 206°
2026-05-03 23:36 41.09037 -111.53271 39890 ft 465 kts 206°
2026-05-03 23:37 41.03101 -111.56630 39887 ft 464 kts 206°
2026-05-03 23:37 40.97152 -111.59990 39888 ft 464 kts 206°
2026-05-03 23:38 40.91202 -111.63344 39883 ft 464 kts 206°
2026-05-03 23:38 40.85268 -111.66682 39898 ft 463 kts 206°
2026-05-03 23:39 40.79340 -111.70011 39907 ft 463 kts 206°
2026-05-03 23:39 40.73419 -111.73329 39912 ft 463 kts 206°
2026-05-03 23:40 40.67484 -111.76648 39924 ft 463 kts 206°
2026-05-03 23:40 40.61597 -111.79934 39934 ft 463 kts 206°
2026-05-03 23:41 40.55666 -111.83237 39934 ft 463 kts 206°
2026-05-03 23:41 40.49731 -111.86536 39927 ft 463 kts 206°
2026-05-03 23:42 40.43807 -111.89823 39913 ft 461 kts 206°
2026-05-03 23:42 40.37901 -111.93095 39898 ft 460 kts 206°
2026-05-03 23:43 40.32007 -111.96354 39900 ft 460 kts 206°
2026-05-03 23:43 40.26100 -111.99614 39899 ft 460 kts 206°
2026-05-03 23:44 40.20215 -112.02854 39890 ft 457 kts 206°
2026-05-03 23:44 40.14358 -112.06072 39878 ft 456 kts 206°
2026-05-03 23:45 40.08503 -112.09286 39860 ft 456 kts 206°
2026-05-03 23:45 40.02653 -112.12490 39830 ft 456 kts 206°
2026-05-03 23:46 39.96810 -112.15683 39842 ft 454 kts 206°
2026-05-03 23:46 39.90982 -112.18863 39841 ft 453 kts 206°
2026-05-03 23:47 39.85198 -112.22013 39840 ft 453 kts 206°
2026-05-03 23:47 39.79377 -112.25178 39837 ft 453 kts 206°
2026-05-03 23:48 39.73559 -112.28334 39841 ft 452 kts 206°
2026-05-03 23:48 39.67748 -112.31481 39840 ft 452 kts 206°
2026-05-03 23:49 39.61950 -112.34616 39846 ft 452 kts 206°
2026-05-03 23:49 39.56139 -112.37752 39846 ft 452 kts 206°
2026-05-03 23:50 39.50347 -112.40871 39843 ft 450 kts 206°
2026-05-03 23:50 39.44561 -112.43982 39839 ft 449 kts 206°
2026-05-03 23:51 39.38826 -112.47060 39833 ft 450 kts 206°
2026-05-03 23:51 39.33035 -112.50164 39835 ft 451 kts 206°
2026-05-03 23:52 39.27238 -112.53263 39833 ft 450 kts 207°
2026-05-03 23:52 39.21463 -112.56345 39833 ft 449 kts 207°
2026-05-03 23:53 39.15685 -112.59425 39822 ft 449 kts 207°
2026-05-03 23:53 39.09906 -112.62499 39821 ft 449 kts 207°
2026-05-03 23:54 39.04127 -112.65566 39817 ft 448 kts 207°
2026-05-03 23:54 38.98374 -112.68615 39821 ft 447 kts 207°
2026-05-03 23:55 38.92622 -112.71660 39821 ft 447 kts 207°
2026-05-03 23:55 38.86900 -112.74682 39812 ft 447 kts 207°
2026-05-03 23:56 38.81150 -112.77713 39809 ft 446 kts 208°
2026-05-03 23:56 38.75417 -112.80729 39815 ft 444 kts 208°
2026-05-03 23:57 38.69692 -112.83737 39827 ft 444 kts 208°
2026-05-03 23:57 38.63979 -112.86735 39865 ft 444 kts 208°
2026-05-03 23:58 38.58257 -112.89731 39885 ft 443 kts 208°
2026-05-03 23:58 38.52560 -112.92708 39923 ft 441 kts 208°
2026-05-03 23:59 38.46880 -112.95673 39933 ft 441 kts 208°
2026-05-03 23:59 38.41227 -112.98620 39935 ft 441 kts 208°
2026-05-04 00:00 38.35795 -113.02079 39932 ft 432 kts 219°
2026-05-04 00:00 38.31212 -113.06764 39920 ft 427 kts 225°
2026-05-04 00:01 38.26793 -113.11825 39890 ft 427 kts 226°
2026-05-04 00:01 38.22402 -113.16914 39867 ft 427 kts 226°
2026-05-04 00:02 38.17990 -113.21985 39840 ft 427 kts 226°
2026-05-04 00:02 38.13561 -113.27039 39807 ft 427 kts 226°
2026-05-04 00:03 38.09129 -113.32083 39803 ft 428 kts 226°
2026-05-04 00:03 38.04703 -113.37109 39807 ft 425 kts 226°
2026-05-04 00:04 38.00305 -113.42097 39813 ft 423 kts 226°
2026-05-04 00:04 37.95794 -113.46920 39813 ft 427 kts 220°
2026-05-04 00:05 37.90465 -113.50430 39820 ft 440 kts 206°
2026-05-04 00:05 37.84427 -113.52290 39823 ft 449 kts 199°
2026-05-04 00:06 37.78315 -113.53720 39820 ft 450 kts 199°
2026-05-04 00:06 37.72170 -113.55128 39815 ft 448 kts 199°
2026-05-04 00:07 37.66046 -113.56575 39832 ft 448 kts 199°
2026-05-04 00:07 37.59929 -113.58045 39829 ft 447 kts 199°
2026-05-04 00:08 37.53806 -113.59516 39818 ft 446 kts 200°
2026-05-04 00:08 37.47710 -113.60975 39816 ft 446 kts 200°
2026-05-04 00:09 37.41617 -113.62432 39805 ft 446 kts 200°
2026-05-04 00:09 37.35525 -113.63886 39766 ft 446 kts 200°
2026-05-04 00:10 37.29438 -113.65334 39782 ft 444 kts 200°
2026-05-04 00:10 37.23378 -113.66774 39821 ft 443 kts 200°
2026-05-04 00:11 37.17365 -113.68207 39827 ft 443 kts 200°
2026-05-04 00:11 37.11309 -113.69643 39813 ft 443 kts 200°
2026-05-04 00:12 37.05286 -113.71187 39838 ft 435 kts 205°
2026-05-04 00:12 36.99634 -113.73646 39812 ft 428 kts 210°
2026-05-04 00:13 36.94075 -113.76336 39796 ft 427 kts 210°
2026-05-04 00:13 36.88575 -113.79032 39777 ft 426 kts 210°
2026-05-04 00:14 36.83045 -113.81726 39750 ft 427 kts 210°
2026-05-04 00:14 36.77511 -113.84401 39733 ft 426 kts 210°
2026-05-04 00:15 36.71977 -113.87066 39730 ft 426 kts 210°
2026-05-04 00:15 36.66488 -113.89709 39713 ft 425 kts 210°
2026-05-04 00:16 36.60997 -113.92520 39700 ft 422 kts 212°
2026-05-04 00:16 36.55685 -113.95529 39705 ft 422 kts 213°
2026-05-04 00:17 36.50325 -113.98558 39702 ft 423 kts 213°
2026-05-04 00:17 36.44943 -114.01543 39680 ft 423 kts 212°
2026-05-04 00:18 36.39703 -114.04779 39677 ft 417 kts 218°
2026-05-04 00:18 36.34746 -114.08493 39673 ft 416 kts 219°
2026-05-04 00:19 36.29824 -114.12286 39673 ft 417 kts 219°
2026-05-04 00:19 36.24894 -114.16086 39662 ft 417 kts 219°
2026-05-04 00:20 36.19987 -114.19850 39665 ft 418 kts 219°
2026-05-04 00:20 36.15851 -114.23013 39665 ft 417 kts 219°
2026-05-04 00:21 36.10147 -114.27473 39660 ft 414 kts 223°
2026-05-04 00:21 36.06600 -114.31344 39666 ft 406 kts 231°
2026-05-04 00:22 36.02837 -114.36405 39661 ft 406 kts 233°
2026-05-04 00:22 35.99092 -114.41638 39657 ft 407 kts 233°
2026-05-04 00:23 35.95371 -114.46827 39675 ft 401 kts 233°
2026-05-04 00:23 35.93537 -114.49360 39684 ft 388 kts 233°
2026-05-04 00:23 35.91815 -114.51733 39688 ft 381 kts 233°
2026-05-04 00:24 35.88366 -114.56490 39693 ft 378 kts 233°
2026-05-04 00:24 35.84880 -114.61301 39653 ft 379 kts 233°
2026-05-04 00:25 35.81362 -114.66144 39703 ft 379 kts 233°
2026-05-04 00:25 35.77835 -114.70985 39704 ft 379 kts 233°
2026-05-04 00:26 35.74308 -114.75824 39702 ft 380 kts 233°
2026-05-04 00:26 35.70777 -114.80656 39734 ft 380 kts 232°
2026-05-04 00:27 35.67243 -114.85486 39736 ft 380 kts 232°
2026-05-04 00:27 35.63710 -114.90326 39732 ft 380 kts 233°
2026-05-04 00:28 35.60174 -114.95159 39730 ft 379 kts 233°
2026-05-04 00:28 35.56671 -114.99942 39733 ft 379 kts 233°
2026-05-04 00:29 35.53136 -115.04764 39745 ft 380 kts 232°
2026-05-04 00:29 35.49600 -115.09573 39746 ft 379 kts 232°
2026-05-04 00:30 35.45977 -115.14291 39757 ft 379 kts 231°
2026-05-04 00:30 35.42353 -115.19002 39759 ft 380 kts 231°
2026-05-04 00:31 35.38726 -115.23726 39758 ft 381 kts 231°
2026-05-04 00:31 35.35094 -115.28454 39770 ft 381 kts 231°
2026-05-04 00:32 35.31463 -115.33177 39777 ft 381 kts 231°
2026-05-04 00:32 35.27850 -115.37869 39770 ft 380 kts 231°
2026-05-04 00:33 35.22413 -115.44919 39778 ft 380 kts 231°
2026-05-04 00:34 35.18787 -115.49613 39771 ft 380 kts 231°
2026-05-04 00:34 35.15152 -115.54312 39772 ft 380 kts 231°
2026-05-04 00:35 35.11520 -115.59003 39759 ft 380 kts 232°
2026-05-04 00:35 35.07870 -115.63675 39767 ft 380 kts 231°
2026-05-04 00:36 35.04237 -115.68311 39764 ft 380 kts 231°
2026-05-04 00:36 35.00584 -115.72970 39763 ft 379 kts 231°
2026-05-04 00:37 34.96932 -115.77626 39706 ft 380 kts 231°
2026-05-04 00:37 34.93280 -115.82275 39606 ft 379 kts 231°
2026-05-04 00:38 34.89640 -115.86903 39510 ft 379 kts 231°
2026-05-04 00:38 34.85985 -115.91543 39239 ft 378 kts 231°
2026-05-04 00:38 34.84190 -115.93819 39010 ft 378 kts 232°
2026-05-04 00:39 34.82348 -115.96154 38748 ft 377 kts 232°
2026-05-04 00:39 34.80534 -115.98451 38432 ft 376 kts 232°
2026-05-04 00:39 34.78745 -116.00714 38065 ft 373 kts 232°
2026-05-04 00:39 34.76957 -116.02977 37699 ft 370 kts 233°
2026-05-04 00:40 34.75184 -116.05239 37369 ft 368 kts 233°
2026-05-04 00:40 34.73417 -116.07495 37022 ft 368 kts 233°
2026-05-04 00:40 34.71655 -116.09739 36697 ft 365 kts 233°
2026-05-04 00:40 34.69896 -116.11980 36368 ft 367 kts 233°
2026-05-04 00:41 34.68128 -116.14232 36043 ft 370 kts 233°
2026-05-04 00:41 34.66348 -116.16498 35736 ft 371 kts 233°
2026-05-04 00:41 34.64559 -116.18770 35411 ft 372 kts 233°
2026-05-04 00:41 34.62769 -116.21043 35100 ft 373 kts 233°
2026-05-04 00:42 34.60975 -116.23319 34794 ft 373 kts 233°
2026-05-04 00:42 34.59179 -116.25596 34499 ft 373 kts 233°
2026-05-04 00:42 34.57381 -116.27871 34179 ft 370 kts 233°
2026-05-04 00:42 34.55630 -116.30084 33882 ft 366 kts 233°
2026-05-04 00:43 34.53873 -116.32305 33604 ft 362 kts 233°
2026-05-04 00:43 34.52140 -116.34498 33272 ft 360 kts 233°
2026-05-04 00:43 34.50452 -116.36632 32989 ft 358 kts 233°
2026-05-04 00:43 34.48731 -116.38808 32690 ft 358 kts 233°
2026-05-04 00:44 34.47009 -116.40983 32347 ft 357 kts 233°
2026-05-04 00:44 34.45297 -116.43143 32046 ft 355 kts 233°
2026-05-04 00:44 34.43586 -116.45300 31744 ft 354 kts 233°
2026-05-04 00:44 34.41950 -116.47504 31379 ft 348 kts 239°
2026-05-04 00:45 34.40718 -116.49987 31037 ft 342 kts 246°
2026-05-04 00:45 34.39655 -116.52566 30687 ft 342 kts 247°
2026-05-04 00:45 34.38602 -116.55151 30311 ft 342 kts 246°
2026-05-04 00:45 34.37544 -116.57741 29944 ft 343 kts 246°
2026-05-04 00:46 34.36483 -116.60326 29517 ft 343 kts 246°
2026-05-04 00:46 34.35420 -116.62910 29082 ft 343 kts 246°
2026-05-04 00:46 34.34356 -116.65490 28670 ft 341 kts 246°
2026-05-04 00:46 34.33294 -116.68064 28244 ft 344 kts 246°
2026-05-04 00:47 34.32250 -116.70650 27832 ft 349 kts 246°
2026-05-04 00:47 34.31176 -116.73331 27411 ft 350 kts 246°
2026-05-04 00:47 34.30127 -116.75947 27047 ft 350 kts 246°
2026-05-04 00:47 34.29067 -116.78585 26645 ft 347 kts 246°
2026-05-04 00:48 34.28014 -116.81201 26248 ft 345 kts 246°
2026-05-04 00:48 34.26952 -116.83836 25857 ft 344 kts 245°
2026-05-04 00:48 34.25911 -116.86416 25477 ft 342 kts 245°
2026-05-04 00:48 34.24877 -116.88978 25146 ft 341 kts 245°
2026-05-04 00:49 34.23841 -116.91543 24768 ft 339 kts 245°
2026-05-04 00:49 34.22808 -116.94100 24409 ft 338 kts 245°
2026-05-04 00:49 34.21778 -116.96646 24043 ft 336 kts 245°
2026-05-04 00:49 34.20864 -116.99245 23712 ft 335 kts 250°
2026-05-04 00:50 34.20118 -117.01914 23132 ft 336 kts 251°
2026-05-04 00:50 34.19408 -117.04552 22689 ft 326 kts 251°
2026-05-04 00:50 34.18709 -117.07151 22211 ft 327 kts 251°
2026-05-04 00:50 34.18004 -117.09774 21708 ft 329 kts 251°
2026-05-04 00:51 34.17297 -117.12396 21225 ft 327 kts 251°
2026-05-04 00:51 34.16592 -117.15000 20734 ft 325 kts 251°
2026-05-04 00:51 34.15895 -117.17582 20285 ft 323 kts 251°
2026-05-04 00:51 34.15186 -117.20161 19810 ft 323 kts 251°
2026-05-04 00:52 34.14478 -117.22725 19343 ft 321 kts 251°
2026-05-04 00:52 34.13773 -117.25275 18865 ft 320 kts 251°
2026-05-04 00:52 34.13072 -117.27817 18356 ft 319 kts 250°
2026-05-04 00:52 34.12371 -117.30355 17844 ft 318 kts 250°
2026-05-04 00:53 34.11673 -117.32884 17359 ft 317 kts 250°
2026-05-04 00:53 34.10974 -117.35415 16859 ft 317 kts 250°
2026-05-04 00:53 34.10278 -117.37940 16390 ft 318 kts 250°
2026-05-04 00:53 34.09623 -117.40496 15908 ft 318 kts 251°
2026-05-04 00:54 34.09004 -117.43023 15422 ft 315 kts 251°
2026-05-04 00:54 34.08385 -117.45540 14952 ft 312 kts 251°
2026-05-04 00:54 34.07767 -117.48033 14501 ft 308 kts 251°
2026-05-04 00:54 34.07077 -117.50481 13951 ft 308 kts 246°
2026-05-04 00:55 34.06249 -117.52853 13484 ft 307 kts 244°
2026-05-04 00:55 34.05399 -117.55209 13053 ft 305 kts 244°
2026-05-04 00:55 34.04565 -117.57518 12679 ft 304 kts 244°
2026-05-04 00:55 34.03724 -117.59847 12296 ft 303 kts 244°
2026-05-04 00:56 34.02880 -117.62186 11912 ft 302 kts 244°
2026-05-04 00:56 34.02048 -117.64495 11547 ft 301 kts 244°
2026-05-04 00:56 34.01219 -117.66802 11180 ft 300 kts 245°
2026-05-04 00:56 34.00608 -117.69212 10815 ft 302 kts 257°
2026-05-04 00:57 34.00318 -117.71685 10458 ft 302 kts 261°
2026-05-04 00:57 34.00087 -117.74194 10223 ft 295 kts 261°
2026-05-04 00:57 33.99864 -117.76649 9815 ft 291 kts 261°
2026-05-04 00:57 33.99642 -117.79024 9329 ft 280 kts 260°
2026-05-04 00:58 33.99417 -117.81348 8964 ft 277 kts 260°
2026-05-04 00:58 33.99193 -117.83647 8614 ft 276 kts 261°
2026-05-04 00:58 33.98974 -117.85904 8273 ft 275 kts 260°
2026-05-04 00:58 33.98750 -117.88185 7924 ft 274 kts 260°
2026-05-04 00:59 33.98533 -117.90430 7674 ft 264 kts 260°
2026-05-04 00:59 33.98329 -117.92575 7405 ft 252 kts 260°
2026-05-04 00:59 33.98123 -117.94650 6972 ft 246 kts 261°
2026-05-04 00:59 33.97921 -117.96656 6636 ft 238 kts 260°
2026-05-04 01:00 33.97726 -117.98606 6338 ft 232 kts 261°
2026-05-04 01:00 33.97537 -118.00531 6029 ft 229 kts 259°
2026-05-04 01:00 33.97346 -118.02425 5725 ft 228 kts 260°
2026-05-04 01:00 33.97158 -118.04311 5453 ft 225 kts 260°
2026-05-04 01:01 33.96976 -118.06140 5319 ft 214 kts 261°
2026-05-04 01:01 33.96804 -118.07875 5203 ft 203 kts 261°
2026-05-04 01:01 33.96640 -118.09546 4776 ft 201 kts 261°
2026-05-04 01:01 33.96473 -118.11215 4305 ft 198 kts 261°
2026-05-04 01:02 33.96308 -118.12855 3846 ft 195 kts 261°
2026-05-04 01:02 33.96153 -118.14421 3659 ft 181 kts 261°
2026-05-04 01:02 33.96007 -118.15882 3488 ft 175 kts 261°
2026-05-04 01:02 33.95867 -118.17319 3264 ft 169 kts 261°
2026-05-04 01:03 33.95729 -118.18702 3050 ft 165 kts 260°
2026-05-04 01:03 33.95586 -118.20074 2713 ft 167 kts 262°
2026-05-04 01:03 33.95444 -118.21468 2340 ft 167 kts 260°
2026-05-04 01:03 33.95301 -118.22870 2021 ft 165 kts 261°
2026-05-04 01:04 33.95165 -118.24226 1902 ft 163 kts 260°
2026-05-04 01:04 33.95038 -118.25572 1900 ft 163 kts 261°
2026-05-04 01:04 33.94902 -118.26904 1891 ft 154 kts 260°
2026-05-04 01:04 33.94770 -118.28159 1801 ft 149 kts 262°
2026-05-04 01:05 33.94649 -118.29393 1594 ft 149 kts 262°
2026-05-04 01:05 33.94525 -118.30622 1391 ft 146 kts 261°
2026-05-04 01:05 33.94402 -118.31826 1191 ft 143 kts 259°
2026-05-04 01:05 33.94279 -118.33011 996 ft 141 kts 261°
2026-05-04 01:06 33.94159 -118.34173 794 ft 139 kts 262°
2026-05-04 01:06 33.94044 -118.35298 637 ft 131 kts 263°
2026-05-04 01:06 33.93933 -118.36378 421 ft 129 kts 263°
2026-05-04 01:06 33.93819 -118.37435 264 ft 126 kts 262°
2026-05-04 01:07 33.93714 -118.38481 119 ft 126 kts 263°
2026-05-04 01:07 33.93620 -118.39427 103 ft 92 kts 262°
2026-05-04 01:07 33.93564 -118.39979 103 ft 51 kts 264°
2026-05-04 01:07 33.93599 -118.40282 104 ft 17 kts 291°
2026-05-04 01:08 33.93620 -118.40373 103 ft 16 kts 278°
2026-05-04 01:08 33.93619 -118.40504 104 ft 12 kts 262°
2026-05-04 01:08 33.93608 -118.40615 103 ft 15 kts 263°
2026-05-04 01:08 33.93600 -118.40693 100 ft 4 kts 263°
2026-05-04 01:09 33.93600 -118.40694 100 ft 0 kts 263°
2026-05-04 01:09 33.93599 -118.40700 101 ft 3 kts 263°
2026-05-04 01:09 33.93594 -118.40744 103 ft 8 kts 263°
2026-05-04 01:09 33.93597 -118.40823 102 ft 11 kts 284°
2026-05-04 01:10 33.93650 -118.40885 102 ft 13 kts 339°
2026-05-04 01:10 33.93746 -118.40907 101 ft 11 kts 353°
2026-05-04 01:10 33.93792 -118.40914 100 ft 1 kts 353°
2026-05-04 01:10 33.93804 -118.40916 101 ft 0 kts 353°
2026-05-04 01:12 33.93808 -118.40916 101 ft 1 kts 353°
2026-05-04 01:12 33.93808 -118.40917 101 ft 0 kts 353°
2026-05-04 01:12 33.93811 -118.40917 100 ft 0 kts 353°
2026-05-04 01:13 33.93818 -118.40918 100 ft 0 kts 353°
2026-05-04 01:13 33.93826 -118.40919 100 ft 4 kts 353°
2026-05-04 01:13 33.93853 -118.40942 101 ft 6 kts 302°
2026-05-04 01:14 33.93858 -118.41000 101 ft 9 kts 265°
2026-05-04 01:14 33.93851 -118.41086 102 ft 12 kts 264°
2026-05-04 01:14 33.93840 -118.41198 99 ft 12 kts 268°
2026-05-04 01:14 33.93896 -118.41263 101 ft 13 kts 346°
2026-05-04 01:15 33.94001 -118.41281 101 ft 17 kts 352°
2026-05-04 01:15 33.94134 -118.41302 99 ft 21 kts 352°
2026-05-04 01:15 33.94282 -118.41325 100 ft 19 kts 354°
2026-05-04 01:15 33.94407 -118.41342 100 ft 20 kts 353°
2026-05-04 01:16 33.94551 -118.41363 99 ft 19 kts 353°
2026-05-04 01:16 33.94645 -118.41374 102 ft 11 kts
2026-05-04 01:16 33.94696 -118.41302 102 ft 14 kts 82°
2026-05-04 01:16 33.94712 -118.41198 100 ft 10 kts 77°
2026-05-04 01:17 33.94729 -118.41101 102 ft 14 kts 81°
2026-05-04 01:17 33.94743 -118.40972 99 ft 13 kts 85°
2026-05-04 01:17 33.94703 -118.40914 100 ft 11 kts 163°
2026-05-04 01:17 33.94617 -118.40897 100 ft 14 kts 173°
2026-05-04 01:18 33.94593 -118.40894 100 ft 0 kts 173°
2026-05-04 01:18 33.94584 -118.40892 101 ft 4 kts 174°
2026-05-04 01:18 33.94558 -118.40914 102 ft 6 kts 236°
2026-05-04 01:18 33.94545 -118.40968 102 ft 5 kts 261°
2026-05-04 01:19 33.94541 -118.41001 101 ft 3 kts 263°
2026-05-04 01:19 33.94541 -118.41005 101 ft 0 kts 263°